Charles City, IA

11:17 AM CDT on March 29, 2017 (GMT -0500)
Charles City Municipal

Weather History for KCCY - December, 2011

Change the Weather History Date:

Thursday, December 29, 2011

  Actual Average Record
Temperature  
Mean Temperature 36 °F -  
Max Temperature 42 °F 26 °F 51 °F (1984)
Min Temperature 30 °F 9 °F -11 °F (1970)
Degree Days  
Heating Degree Days 29    
Moisture  
Dew Point 30 °F    
Average Humidity 78    
Maximum Humidity 93    
Minimum Humidity 70    
Precipitation  
Precipitation 0.00 in - - ()
Sea Level Pressure  
Sea Level Pressure 29.58 in    
Wind  
Wind Speed 11 mph (WNW)    
Max Wind Speed 18 mph    
Max Gust Speed 26 mph    
Visibility 10 miles    
Events      
Averages and records for this station are not official NWS values.
T = Trace of Precipitation, MM = Missing Value Source: NWS Daily Summary

Daily Weather History Graph

Daily Weather History Graph

Search for Another Location

Airport or City:

Trip Planner

Search our weather history database for the weather conditions in past years. The results will help you decide how hot, cold, wet, or windy it might be!

Date:

Astronomy

Dec. 29, 2011 Rise Set
Actual Time 7:41 AM CST 4:43 PM CST
Civil Twilight 7:09 AM CST 5:15 PM CST
Nautical Twilight 6:33 AM CST 5:51 PM CST
Astronomical Twilight 5:58 AM CST 6:26 PM CST
Moon 10:26 AM CST 10:29 PM CST
Length of Visible Light 10h 06m
Length of Day
9h 01m
Waxing Crescent, 27% of the Moon is Illuminated
Dec 29
Waxing Crescent
Jan 1
First Quarter
Jan 9
Full
Jan 16
Last Quarter
Jan 23
New

Hourly Weather History & Observations

Time (CST) Temp. Windchill Dew Point Humidity Pressure Visibility Wind Dir Wind Speed Gust Speed Precip Events Conditions
12:15 AM 35.6 °F 31.7 °F 30.2 °F 81% 29.61 in 10.0 mi SSE 4.6 mph - N/A   Mostly Cloudy
12:35 AM 35.6 °F 28.0 °F 28.4 °F 75% 29.58 in 10.0 mi SSE 10.4 mph - N/A   Mostly Cloudy
1:15 AM 35.6 °F 27.1 °F 28.4 °F 75% 29.54 in 10.0 mi South 12.7 mph - N/A   Scattered Clouds
1:35 AM 35.6 °F 27.1 °F 28.4 °F 75% 29.53 in 10.0 mi South 12.7 mph - N/A   Clear
1:55 AM 35.6 °F 27.5 °F 28.4 °F 75% 29.53 in 10.0 mi South 11.5 mph - N/A   Clear
2:15 AM 35.6 °F 27.5 °F 28.4 °F 75% 29.53 in 10.0 mi SSW 11.5 mph - N/A   Clear
2:35 AM 35.6 °F 28.0 °F 28.4 °F 75% 29.52 in 10.0 mi SSW 10.4 mph - N/A   Clear
2:55 AM 33.8 °F 27.0 °F 28.4 °F 81% 29.51 in 10.0 mi SSW 8.1 mph - N/A   Clear
3:15 AM 33.8 °F 26.4 °F 28.4 °F 81% 29.51 in 10.0 mi SSW 9.2 mph - N/A   Clear
3:35 AM 33.8 °F 26.4 °F 28.4 °F 81% 29.50 in 10.0 mi SSW 9.2 mph - N/A   Clear
3:55 AM 33.8 °F 27.7 °F 28.4 °F 81% 29.50 in 10.0 mi SSW 6.9 mph - N/A   Clear
4:35 AM 32.0 °F 24.8 °F 26.6 °F 80% 29.49 in 10.0 mi SW 8.1 mph - N/A   Clear
5:15 AM 35.6 °F 27.1 °F 28.4 °F 75% 29.49 in 10.0 mi West 12.7 mph - N/A   Clear
5:35 AM 35.6 °F 26.6 °F 28.4 °F 75% 29.48 in 10.0 mi WSW 13.8 mph - N/A   Clear
6:15 AM 35.6 °F 27.1 °F 28.4 °F 75% 29.49 in 10.0 mi West 12.7 mph - N/A   Clear
6:55 AM 35.6 °F 27.5 °F 28.4 °F 75% 29.50 in 10.0 mi West 11.5 mph - N/A   Clear
7:15 AM 35.6 °F 27.1 °F 28.4 °F 75% 29.51 in 10.0 mi West 12.7 mph - N/A   Clear
7:35 AM 35.6 °F 27.1 °F 28.4 °F 75% 29.51 in 10.0 mi West 12.7 mph 17.3 mph N/A   Clear
7:55 AM 35.6 °F 25.2 °F 30.2 °F 81% 29.51 in 10.0 mi West 18.4 mph 23.0 mph N/A   Clear
8:35 AM 37.4 °F 27.5 °F 30.2 °F 75% 29.54 in 10.0 mi WNW 18.4 mph 26.5 mph N/A   Clear
8:55 AM 37.4 °F 28.5 °F 30.2 °F 75% 29.54 in 10.0 mi WNW 15.0 mph 23.0 mph N/A   Clear
9:15 AM 37.4 °F 27.8 °F 30.2 °F 75% 29.55 in 10.0 mi NW 17.3 mph 25.3 mph N/A   Clear
9:35 AM 39.2 °F 31.2 °F 32.0 °F 75% 29.56 in 10.0 mi NW 13.8 mph 21.9 mph N/A   Clear
9:55 AM 39.2 °F 30.8 °F 30.2 °F 70% 29.57 in 10.0 mi NW 15.0 mph - N/A   Clear
10:15 AM 39.2 °F 30.2 °F 32.0 °F 75% 29.59 in 10.0 mi NW 17.3 mph 20.7 mph N/A   Clear
10:35 AM 41.0 °F 32.5 °F 32.0 °F 70% 29.60 in 10.0 mi WNW 17.3 mph 20.7 mph N/A   Clear
10:55 AM 41.0 °F 32.8 °F 33.8 °F 76% 29.59 in 10.0 mi NW 16.1 mph 21.9 mph N/A   Clear
11:15 AM 42.8 °F 35.4 °F 33.8 °F 70% 29.60 in 10.0 mi WNW 15.0 mph - N/A   Clear
11:35 AM 42.8 °F 34.8 °F 33.8 °F 70% 29.60 in 10.0 mi WNW 17.3 mph 20.7 mph N/A   Clear
11:55 AM 42.8 °F 35.1 °F 33.8 °F 70% 29.60 in 10.0 mi WNW 16.1 mph - N/A   Clear
12:15 PM 42.8 °F 34.8 °F 33.8 °F 70% 29.60 in 10.0 mi WNW 17.3 mph 21.9 mph N/A   Clear
12:35 PM 42.8 °F 35.4 °F 33.8 °F 70% 29.60 in 10.0 mi WNW 15.0 mph - N/A   Clear
12:55 PM 42.8 °F 35.4 °F 33.8 °F 70% 29.60 in 10.0 mi WNW 15.0 mph - N/A   Scattered Clouds
1:15 PM 42.8 °F 34.8 °F 33.8 °F 70% 29.61 in 10.0 mi WNW 17.3 mph 20.7 mph N/A   Scattered Clouds
1:35 PM 41.0 °F 32.8 °F 33.8 °F 76% 29.61 in 10.0 mi NW 16.1 mph 19.6 mph N/A   Scattered Clouds
1:55 PM 39.2 °F 31.2 °F 32.0 °F 75% 29.61 in 10.0 mi NW 13.8 mph 18.4 mph N/A   Clear
2:15 PM 39.2 °F 33.0 °F 32.0 °F 75% 29.61 in 10.0 mi NW 9.2 mph - N/A   Clear
2:35 PM 39.2 °F 32.0 °F 32.0 °F 75% 29.60 in 10.0 mi NNW 11.5 mph - N/A   Clear
3:15 PM 37.4 °F 31.4 °F 32.0 °F 81% 29.61 in 10.0 mi NNW 8.1 mph - N/A   Clear
3:55 PM 37.4 °F 32.8 °F 30.2 °F 75% 29.63 in 10.0 mi NW 5.8 mph - N/A   Clear
4:15 PM 35.6 °F 32.8 °F 30.2 °F 81% 29.63 in 10.0 mi NW 3.5 mph - N/A   Clear
4:35 PM 33.8 °F 29.6 °F 28.4 °F 81% 29.63 in 10.0 mi NNW 4.6 mph - N/A   Clear
4:55 PM 33.8 °F 29.6 °F 28.4 °F 81% 29.64 in 10.0 mi NNW 4.6 mph - N/A   Clear
5:15 PM 32.0 °F 27.5 °F 28.4 °F 87% 29.65 in 10.0 mi NW 4.6 mph - N/A   Clear
5:55 PM 30.2 °F 26.7 °F 28.4 °F 93% 29.65 in 10.0 mi NNW 3.5 mph - N/A   Clear
6:15 PM 32.0 °F 27.5 °F 28.4 °F 87% 29.65 in 10.0 mi NNE 4.6 mph - N/A   Clear
6:35 PM 32.0 °F 28.7 °F 28.4 °F 87% 29.65 in 10.0 mi NE 3.5 mph - N/A   Scattered Clouds
7:15 PM 32.0 °F 26.4 °F 28.4 °F 87% 29.65 in 10.0 mi NE 5.8 mph - N/A   Clear
7:35 PM 32.0 °F 25.6 °F 28.4 °F 87% 29.65 in 10.0 mi NE 6.9 mph - N/A   Clear
7:55 PM 32.0 °F 25.6 °F 28.4 °F 87% 29.64 in 10.0 mi ENE 6.9 mph - N/A   Clear
8:15 PM 32.0 °F 25.6 °F 28.4 °F 87% 29.63 in 10.0 mi ENE 6.9 mph - N/A   Clear
8:55 PM 32.0 °F 24.8 °F 28.4 °F 87% 29.62 in 10.0 mi East 8.1 mph - N/A   Scattered Clouds
9:15 PM 32.0 °F 24.2 °F 28.4 °F 87% 29.62 in 10.0 mi East 9.2 mph - N/A   Mostly Cloudy
9:35 PM 32.0 °F 24.2 °F 28.4 °F 87% 29.62 in 10.0 mi East 9.2 mph - N/A   Scattered Clouds
9:55 PM 33.8 °F 25.3 °F 28.4 °F 81% 29.61 in 7.0 mi East 11.5 mph - N/A   Mostly Cloudy
10:35 PM 33.8 °F 25.8 °F 28.4 °F 81% 29.59 in 7.0 mi East 10.4 mph - N/A   Overcast
10:55 PM 33.8 °F 25.3 °F 28.4 °F 81% 29.58 in 7.0 mi East 11.5 mph - N/A   Overcast
11:15 PM 33.8 °F 26.4 °F 30.2 °F 87% 29.58 in 5.0 mi East 9.2 mph - N/A   Overcast
11:35 PM 33.8 °F 24.8 °F 30.2 °F 87% 29.57 in 5.0 mi East 12.7 mph - N/A   Overcast
11:55 PM 33.8 °F 25.8 °F 30.2 °F 87% 29.57 in 5.0 mi East 10.4 mph - N/A   Overcast